Theta_e
300 300 301 301 300 301 301 301 302 302 302 302 302 302 302 302 302 298 292 292 286 278 282 284 284 281 281 279 274 274 274 274 273 266 266 272 265 271 268 271 270 268 264 260 258 255 261 276 274 271 274 278 277 277
299 300 300 300 300 301 301 301 301 301 301 302 302 303 302 302 302 300 292 294 292 284 282 287 288 287 286 285 278 272 274 271 277 270 267 268 262 265 265 261 273 267 271 265 268 267 276 277 276 279 279 276 279 278
298 299 298 299 300 300 300 300 301 301 301 301 301 302 302 302 301 300 294 294 292 286 285 285 281 288 290 288 287 275 274 280 280 280 272 269 264 271 262 263 267 272 274 271 270 274 275 277 278 279 279 279 279 279
297 297 297 298 299 299 299 299 300 300 300 300 301 301 301 301 302 301 294 295 291 285 279 277 286 284 289 289 287 285 283 282 281 280 272 267 264 277 268 272 271 273 274 270 271 276 276 277 278 279 279 279 278 278
297 297 297 297 298 298 298 299 299 299 299 299 299 299 300 301 301 299 297 295 295 288 278 274 278 284 287 287 286 286 283 281 279 274 269 268 273 273 271 275 271 277 275 273 271 278 277 277 279 279 279 279 279 278
296 296 296 297 297 297 297 297 297 297 297 297 298 298 298 300 300 295 286 295 295 294 284 279 282 278 284 286 285 284 284 282 282 280 277 276 279 278 270 264 277 279 279 280 277 280 280 280 279 279 278 278 278 278
296 296 296 296 296 296 296 297 296 296 296 297 297 297 298 299 296 288 285 290 296 295 284 279 279 278 282 281 279 281 283 283 283 281 278 277 277 280 274 267 278 279 279 280 280 279 277 279 278 278 278 278 274 271
296 295 295 295 295 296 295 296 295 295 296 296 296 296 297 298 296 291 293 295 297 287 284 278 275 274 281 281 279 283 282 283 282 281 278 277 279 279 273 277 279 280 280 279 278 279 280 278 275 274 273 270 268 269
295 295 294 294 294 294 294 294 294 294 295 295 296 296 293 288 285 287 297 297 295 287 279 278 273 267 281 280 281 280 282 277 282 278 277 278 272 272 275 277 278 279 278 279 279 272 272 274 276 270 269 267 268 267
293 294 293 293 293 293 293 293 293 294 294 294 292 285 282 285 294 294 289 284 284 284 283 278 269 272 278 275 274 275 277 275 272 275 278 275 273 278 279 279 278 278 277 274 269 269 263 265 268 268 267 266 266 265
291 291 291 291 291 290 290 291 292 293 293 287 283 282 283 293 286 284 279 278 272 269 280 275 277 271 274 270 268 277 272 274 270 270 271 269 265 276 280 279 280 280 276 272 270 268 267 267 267 266 264 262 262 261
290 290 291 290 290 290 290 290 292 290 287 286 286 287 287 282 281 276 274 270 270 268 270 275 271 274 275 277 275 275 271 272 267 269 268 265 272 277 275 277 277 271 268 263 262 263 263 264 263 262 260 258 256 257
288 289 289 289 290 290 290 291 292 291 290 286 282 278 278 277 272 270 262 271 262 270 272 265 269 274 277 278 275 273 270 269 271 270 267 266 270 270 275 264 260 259 259 258 258 258 258 256 256 254 254 253 253 252
288 287 287 288 289 290 290 290 291 290 284 278 275 271 271 269 266 265 263 268 271 269 269 268 271 271 273 274 275 270 272 270 266 265 263 264 268 271 264 260 259 256 256 256 255 255 254 254 253 252 251 250 249 249
286 286 286 286 287 288 289 290 290 287 281 275 275 267 270 265 259 258 258 264 267 269 275 271 269 276 272 272 274 269 265 265 264 262 263 263 262 261 259 257 256 254 253 252 250 251 252 251 251 248 245 245 246 247
284 284 281 286 286 287 288 287 285 284 280 276 271 270 261 262 258 258 256 262 270 277 278 276 273 272 270 272 270 266 265 263 263 261 256 256 255 258 256 255 253 252 250 249 248 249 250 249 248 247 242 243 244 244
282 271 283 284 285 285 285 276 277 278 276 274 266 252 259 267 269 266 261 264 269 274 271 271 269 268 273 269 268 270 265 262 257 259 258 259 258 256 254 251 251 251 249 247 244 245 244 243 242 243 246 246 243 243
269 275 283 283 283 280 273 269 269 272 267 262 259 254 252 254 256 258 264 267 271 273 272 271 273 269 267 266 264 263 257 256 256 256 254 253 252 251 251 250 248 248 246 245 247 244 242 243 244 246 243 245 244 245
274 280 282 283 281 273 265 263 263 264 260 257 261 261 257 256 259 260 260 263 267 268 269 271 270 267 264 259 258 258 259 259 257 254 252 252 251 250 250 250 249 248 248 246 246 248 244 245 246 245 245 245 246 245
280 281 280 279 279 270 259 264 266 263 260 259 259 256 258 257 256 258 259 262 264 267 267 266 260 254 255 254 253 254 255 256 255 253 251 251 250 248 248 248 248 247 247 245 247 249 249 247 245 244 244 245 245 246
274 276 276 268 268 265 261 257 256 258 258 256 255 258 257 257 253 254 257 260 264 254 257 254 252 251 251 250 250 251 251 253 250 251 250 248 248 248 246 246 247 247 248 247 248 247 244 244 245 244 244 244 244 245
269 275 264 269 265 262 258 258 255 257 256 252 256 256 253 254 253 253 255 258 253 250 249 249 249 248 250 249 246 243 245 244 245 249 252 252 249 250 251 251 250 248 249 249 244 244 243 243 243 244 244 245 248 248
269 269 264 263 261 257 255 257 255 257 256 255 255 255 253 249 249 255 255 252 249 249 248 247 247 247 248 248 247 248 247 247 248 246 246 247 248 250 250 249 249 249 246 245 242 243 244 248 247 247 248 248 248 248
263 256 256 255 256 254 252 252 256 255 255 251 252 253 249 245 250 253 248 244 246 248 248 247 247 248 248 248 248 246 246 245 243 244 243 246 247 244 244 244 241 241 243 243 244 244 245 246 250 249 249 247 247 249
257 248 251 249 252 252 251 251 252 252 249 251 253 252 249 246 252 250 248 247 250 250 249 248 249 249 248 246 246 243 240 241 242 243 242 240 240 242 243 242 243 243 243 245 245 248 250 249 247 248 249 248 249 250
246 244 246 245 248 247 247 247 249 247 249 250 248 249 248 252 251 246 246 248 249 248 248 247 245 246 245 242 241 242 243 237 239 243 243 241 242 243 242 245 247 250 252 252 251 251 251 250 249 249 249 250 252 251
245 244 245 247 247 248 248 248 249 250 248 247 246 249 252 249 246 244 245 250 248 245 246 245 242 244 243 242 241 240 239 239 243 245 244 244 246 247 250 250 251 253 251 251 252 252 252 252 252 251 250 249 250 251
241 242 241 245 244 246 246 247 246 245 246 245 247 248 247 245 245 246 247 250 246 246 246 243 243 242 242 244 244 246 246 246 250 251 251 251 250 251 251 250 251 259 252 252 252 252 251 250 250 250 248 249 251 251
241 242 243 245 244 244 242 243 244 243 242 243 247 247 247 249 249 248 250 250 250 249 249 249 249 249 250 251 253 253 252 253 253 252 251 252 252 252 250 251 250 251 250 249 254 256 251 249 249 249 250 251 252 249
242 241 245 247 246 243 241 240 240 240 241 241 241 245 247 249 250 250 249 249 248 248 249 249 250 252 252 253 253 252 252 252 252 251 250 251 251 251 250 248 247 246 244 243 248 250 254 251 251 248 247 247 246 246
241 239 242 244 242 241 239 238 239 240 241 242 242 244 246 246 249 250 252 250 249 251 252 252 252 251 251 251 250 251 252 252 252 252 251 251 251 249 248 249 249 248 247 248 250 249 250 248 246 246 246 246 246 247
240 237 238 240 240 237 233 235 233 235 240 241 243 245 246 248 248 251 252 252 251 250 251 251 250 250 251 251 251 251 253 252 252 253 252 252 252 251 251 251 252 252 251 251 250 251 251 250 249 247 247 247 247 246
243 243 243 244 244 244 243 242 243 244 245 245 245 244 244 247 248 251 254 252 249 248 249 249 249 249 250 250 250 251 252 250 250 255 255 257 256 256 254 249 251 251 251 252 251 250 249 248 248 248 247 246 247 247
Wind_Speed
20 20 19 19 18 19 17 17 16 17 16 15 16 16 16 16 17 7 3 5 5 3 4 4 2 4 4 4 6 5 6 3 3 3 5 5 4 7 4 5 8 8 7 5 2 2 8 8 2 8 9 2 6 7
22 19 17 17 16 16 16 16 16 15 15 17 17 20 18 17 15 16 2 4 4 3 4 2 4 3 5 8 8 2 5 6 7 4 1 3 0 2 5 4 1 3 9 8 11 9 5 7 7 7 6 6 6 8
24 22 19 16 19 18 15 15 14 14 14 15 14 16 19 19 20 15 3 4 3 2 3 3 5 10 4 6 7 8 3 6 5 5 5 4 4 4 4 5 1 6 4 5 5 5 8 10 8 8 8 9 9 9
22 22 23 21 20 18 15 12 15 14 11 11 12 13 16 19 20 18 6 6 3 2 4 7 2 5 8 6 6 4 7 3 5 3 3 4 4 4 4 4 7 8 6 4 5 11 9 11 11 14 9 10 8 8
23 20 19 19 19 21 18 16 14 12 12 12 14 10 11 14 15 10 6 8 9 5 3 3 3 5 7 11 13 7 7 6 4 2 2 4 3 4 1 2 7 9 15 10 13 15 9 11 11 6 8 11 10 8
22 20 20 16 15 17 16 15 13 12 11 12 11 11 12 13 12 2 3 6 12 9 3 5 0 3 8 13 14 14 12 4 4 4 3 4 5 6 5 5 17 16 15 17 18 18 16 16 8 8 9 9 10 10
21 20 16 17 15 14 14 14 14 13 13 13 12 12 13 14 7 3 3 3 7 9 3 3 4 3 3 4 3 3 6 7 5 4 5 5 4 8 3 7 19 13 12 15 16 11 12 15 10 7 10 8 3 4
22 19 17 15 13 13 11 12 11 11 11 14 14 14 13 13 10 8 6 6 8 1 2 3 1 1 3 5 4 4 5 6 7 5 3 7 5 4 8 15 19 19 16 13 13 12 17 9 2 4 4 5 5 6
18 17 14 12 11 12 12 13 12 11 11 12 14 14 3 4 3 2 15 13 5 4 3 3 5 5 2 2 2 1 3 5 4 6 6 7 5 10 12 17 18 18 15 19 13 3 5 11 12 6 6 4 6 4
15 16 15 15 14 12 12 11 10 9 7 6 4 3 3 5 10 12 4 3 6 5 4 3 1 6 6 3 2 3 2 3 4 5 4 6 10 19 14 15 12 12 10 7 4 6 1 5 7 7 8 3 4 4
7 10 11 11 10 8 8 9 10 9 8 2 3 4 2 3 3 3 5 6 3 2 5 5 11 7 3 5 4 4 4 4 4 6 8 5 7 18 20 18 18 14 8 8 4 3 4 4 6 6 4 4 5 5
6 9 9 8 9 10 10 11 14 8 3 5 3 2 2 3 4 7 7 3 5 9 3 8 5 6 4 3 4 6 6 6 7 4 5 5 12 15 10 19 13 5 8 7 4 8 6 7 5 6 5 5 4 5
7 7 8 10 12 12 12 14 13 12 10 3 2 3 2 4 6 6 7 3 2 3 4 2 1 5 4 4 3 6 9 8 5 6 6 8 5 7 12 6 5 5 7 8 6 6 7 7 6 4 7 4 5 5
8 5 2 2 7 10 11 12 14 11 3 4 5 7 7 4 5 6 6 6 5 4 6 4 4 5 3 6 3 4 4 4 6 5 9 6 9 9 6 4 8 7 6 8 7 7 8 7 6 6 6 4 4 2
8 5 2 1 3 6 8 11 15 4 3 4 5 6 6 3 1 2 2 2 2 3 6 3 2 4 3 4 5 3 3 4 6 8 6 3 3 5 6 4 7 8 8 7 5 6 7 6 6 4 2 3 3 1
7 6 2 5 4 4 4 5 2 2 3 4 3 2 2 4 4 3 2 2 2 4 2 1 4 4 5 4 6 7 6 8 6 5 2 2 2 5 5 5 5 6 7 7 5 5 5 5 5 5 1 2 3 3
4 2 1 4 7 5 11 3 2 4 4 6 2 2 2 3 2 1 3 3 2 1 3 3 5 7 2 3 3 4 5 3 2 1 1 3 3 6 7 7 7 7 7 6 4 4 4 3 3 3 4 2 2 4
1 2 4 6 6 4 3 5 3 0 1 1 3 3 1 3 2 1 3 3 2 2 1 3 2 5 5 6 4 1 2 2 3 4 4 4 4 5 5 9 7 7 6 5 5 4 3 4 3 1 2 2 3 3
3 3 9 11 6 5 4 4 3 4 2 2 1 2 2 2 1 2 1 3 2 2 2 1 4 2 2 3 3 2 1 1 3 3 3 5 5 4 5 5 5 5 6 5 4 3 3 4 3 3 1 1 1 2
7 8 7 10 6 3 4 2 3 3 2 1 2 3 2 1 2 2 1 2 2 1 2 1 2 2 3 2 2 2 2 1 4 3 3 2 2 4 4 3 3 3 3 2 3 4 3 1 1 2 1 1 1 2
5 4 7 5 4 6 4 2 4 2 2 3 1 1 1 2 3 4 3 5 2 5 3 4 3 2 2 3 4 3 4 3 1 2 3 3 2 3 3 3 4 3 2 1 2 1 3 3 3 0 1 2 3 3
2 7 3 4 4 3 4 4 4 1 3 1 2 2 3 2 3 3 4 4 5 3 3 3 3 4 3 3 3 3 5 3 2 3 7 10 4 3 3 3 3 2 2 2 3 3 3 2 1 1 1 3 2 2
7 4 4 6 4 6 2 1 4 3 2 1 0 3 3 2 2 4 5 4 2 2 2 2 3 2 3 3 2 2 3 3 3 3 3 2 2 3 4 3 2 4 2 2 2 3 2 2 2 1 2 1 1 2
11 8 7 5 6 3 3 4 2 2 3 4 3 2 3 2 5 3 4 2 2 2 2 3 2 3 2 1 2 2 3 2 3 3 3 3 4 3 2 2 2 2 3 3 2 1 1 2 3 1 1 0 2 2
7 11 7 7 5 4 6 4 5 5 3 2 2 2 2 3 3 4 3 3 3 4 4 4 3 3 2 2 2 2 3 1 3 3 3 2 3 3 3 2 2 4 3 3 1 3 3 2 2 2 2 2 4 4
11 5 7 5 5 5 3 3 4 2 2 3 3 1 1 1 5 4 1 3 3 3 4 4 3 4 3 1 1 2 3 2 3 3 3 3 3 4 3 2 1 3 4 3 3 4 4 3 3 4 4 5 5 4
8 6 4 0 2 3 2 1 1 3 5 5 3 5 3 5 4 3 2 2 2 2 3 2 2 2 3 4 3 3 2 1 2 3 2 2 3 3 2 2 3 2 1 3 4 4 4 5 4 5 5 3 4 5
2 4 5 7 4 3 2 3 5 5 3 4 2 6 4 4 2 3 2 2 3 4 4 2 3 3 2 3 2 1 2 2 4 3 1 1 1 1 1 2 2 5 2 3 3 4 4 4 4 4 4 6 6 4
4 5 2 4 3 5 5 5 3 2 3 3 3 4 3 2 2 2 3 5 5 2 3 3 3 2 1 1 1 2 2 2 4 5 4 2 3 2 2 2 3 2 2 3 6 7 7 6 6 7 8 6 6 4
5 3 4 5 5 5 2 2 2 2 1 2 2 1 1 1 1 2 3 3 4 3 2 2 3 3 4 4 3 4 4 3 4 2 1 2 3 4 5 4 4 4 3 2 4 4 6 4 5 4 3 4 3 4
3 3 2 4 3 1 1 2 1 1 1 2 1 2 1 2 2 1 7 4 3 3 5 5 5 6 5 5 4 3 3 2 3 3 3 4 4 4 5 5 4 3 3 3 4 4 4 3 3 5 6 8 8 7
3 3 2 4 3 2 1 3 1 2 2 2 3 2 1 0 4 5 6 6 6 6 6 4 5 4 4 3 3 2 4 4 5 5 7 5 5 6 6 5 5 4 4 5 5 5 6 8 7 7 8 10 9 8
2 2 2 2 2 3 4 4 1 2 2 2 3 2 2 2 5 2 2 1 1 2 3 3 3 4 5 6 5 5 5 4 8 11 12 13 12 10 6 4 4 3 4 5 5 5 8 9 9 9 9 9 10 10
Wind_Direction
255 243 241 247 242 230 231 225 225 224 228 229 220 218 214 213 202 155 189 171 134 158 263 209 241 135 103 106 138 200 73 332 45 114 146 199 176 212 153 202 179 159 170 200 94 88 270 185 84 158 215 203 180 189
241 239 239 234 238 246 236 237 234 237 235 234 234 220 213 210 203 188 179 181 142 148 232 309 250 256 190 173 129 235 163 164 171 134 208 102 294 68 160 232 236 258 194 183 181 204 206 187 194 222 178 172 206 200
233 236 235 234 230 224 232 236 228 227 235 227 222 211 209 211 213 207 145 146 110 195 280 241 206 233 166 170 157 130 287 187 195 169 157 189 188 119 155 243 190 272 148 220 73 228 218 217 233 230 208 215 228 217
235 236 235 233 224 222 214 224 221 223 230 241 239 230 219 218 220 210 188 160 134 137 217 266 9 210 186 161 174 152 151 126 123 113 125 150 158 175 202 185 193 208 164 184 251 255 267 268 246 249 225 231 234 232
232 233 235 231 232 227 223 211 210 209 215 220 233 236 238 230 227 222 192 183 176 188 198 265 309 248 196 181 191 163 151 146 140 94 118 211 180 104 309 99 247 214 235 237 245 247 223 245 255 227 215 235 232 230
228 225 223 221 226 219 214 211 211 217 220 222 221 212 224 236 224 180 228 187 193 190 213 232 283 212 191 196 192 196 187 155 143 138 188 225 214 154 172 207 244 247 238 234 250 250 248 251 250 228 209 224 224 213
222 216 214 221 220 217 218 222 222 222 227 231 234 234 225 217 206 192 182 150 192 182 198 207 204 245 217 137 195 149 187 201 170 180 200 196 177 189 185 223 246 243 240 243 239 247 263 253 240 232 210 225 138 105
214 197 202 210 209 213 209 225 229 235 238 237 233 238 239 237 239 226 174 179 127 163 212 233 134 88 208 167 188 156 174 185 191 208 176 206 143 193 233 235 245 253 252 249 238 214 236 271 155 197 127 130 164 188
191 195 192 192 189 190 190 209 214 227 246 244 222 225 230 212 195 198 157 171 158 193 224 180 154 225 176 106 127 141 151 190 166 205 206 152 181 214 212 229 242 237 229 243 250 223 209 214 236 172 164 175 202 202
187 176 176 174 175 181 192 197 204 218 225 175 130 160 206 201 166 138 131 191 213 191 216 209 127 178 158 153 148 124 170 209 202 222 145 216 233 238 237 236 226 229 212 162 146 265 162 247 202 187 204 169 184 175
162 175 176 185 182 190 214 222 207 189 143 145 201 194 204 171 87 171 197 194 203 212 192 215 188 145 244 148 169 208 172 186 205 224 191 205 248 234 234 239 242 242 198 196 186 149 134 157 177 167 156 140 133 136
190 192 199 201 215 221 237 229 228 168 162 165 115 55 103 190 207 192 183 199 167 208 242 159 189 154 165 146 136 171 184 190 216 133 167 225 240 232 206 225 233 158 137 124 121 129 114 96 80 109 114 112 97 98
228 206 212 221 228 231 232 218 209 178 141 82 134 187 209 170 201 209 203 199 200 182 168 175 186 125 140 183 173 179 202 208 115 189 217 225 246 210 209 136 119 93 103 115 106 95 104 104 79 87 107 97 114 113
105 102 96 230 221 214 216 218 214 166 125 181 176 200 198 193 230 192 187 191 217 136 155 136 122 149 174 177 179 210 189 129 202 208 221 221 215 212 150 114 125 153 126 118 113 110 112 114 108 97 109 128 124 155
73 62 26 18 262 252 237 227 212 170 179 187 169 220 202 221 339 256 264 65 250 157 139 88 57 156 161 200 191 126 177 222 212 222 225 265 322 107 129 120 129 137 130 123 119 119 119 123 126 118 101 123 133 182
32 22 77 60 12 330 318 263 182 137 211 189 189 190 266 71 307 2 353 295 289 146 103 135 193 201 188 190 188 200 185 205 234 214 255 307 29 83 102 103 101 110 112 115 111 115 121 130 138 155 201 206 203 195
78 199 110 328 326 62 31 64 106 240 234 190 172 6 114 101 113 182 178 226 273 156 172 170 192 210 149 180 205 171 207 226 348 330 14 51 118 113 100 98 101 108 108 106 95 89 105 99 96 72 87 293 230 227
99 283 320 325 298 72 33 24 70 63 208 48 127 244 74 116 135 349 342 357 292 196 231 237 144 191 200 185 217 189 104 118 54 52 27 11 43 86 114 124 116 113 115 116 116 124 103 99 113 193 216 281 315 329
164 95 57 10 46 95 89 12 42 131 99 314 53 68 65 75 36 141 223 303 290 305 282 236 252 206 196 42 67 70 80 99 122 92 61 38 37 66 89 91 110 119 129 134 146 141 157 186 188 187 214 78 244 293
54 47 38 34 48 91 68 52 338 97 131 83 36 37 55 40 300 342 24 15 333 310 272 317 43 33 1 11 8 8 333 133 116 101 99 101 96 95 93 111 97 100 83 93 106 122 121 54 318 212 163 188 161 291
50 25 39 60 59 59 73 40 56 61 115 91 259 56 83 36 29 22 21 339 60 30 41 22 26 12 37 6 349 323 352 359 108 165 159 139 191 122 108 97 119 116 133 137 131 119 115 167 222 198 129 258 244 247
327 48 60 22 84 73 72 6 113 133 68 133 52 36 44 40 30 13 299 55 48 33 7 343 5 329 360 354 315 321 288 323 4 51 78 113 127 145 156 152 125 124 150 167 167 175 213 225 204 230 200 266 286 290
28 31 54 16 79 42 10 353 79 7 80 92 33 67 42 16 296 307 77 67 78 26 333 326 317 277 269 266 268 306 345 48 57 44 60 88 102 98 106 109 128 137 151 273 183 151 179 227 246 223 270 314 339 331
33 44 28 41 22 62 20 30 42 60 55 37 57 77 12 317 315 61 75 38 281 319 349 339 295 289 269 324 27 343 348 16 62 40 3 86 84 31 76 143 165 196 192 168 128 127 208 235 226 251 252 296 298 277
68 6 10 15 15 27 38 22 10 46 60 353 85 59 10 337 73 60 66 335 347 8 0 339 338 3 345 306 324 310 312 106 119 101 316 94 110 38 18 354 288 238 156 106 191 197 219 209 208 225 246 258 272 290
67 344 33 349 5 46 359 53 27 11 348 63 36 338 341 21 64 53 8 320 323 337 355 345 333 333 331 237 241 339 275 196 106 78 281 168 148 135 165 150 287 294 191 190 169 203 217 208 213 233 254 266 273 281
53 353 352 46 321 290 13 334 276 46 50 24 348 348 6 64 56 282 291 34 320 292 276 257 216 244 257 294 290 281 276 196 146 198 247 195 212 203 161 189 245 256 173 188 206 204 213 221 228 236 251 261 244 250
102 27 16 335 10 350 34 37 36 33 14 348 267 33 62 38 352 301 284 345 260 291 290 266 231 227 245 264 259 322 329 273 270 262 289 313 315 330 319 297 285 282 228 214 224 228 220 224 230 240 242 256 272 242
34 339 301 354 37 49 41 23 42 40 348 312 14 67 80 60 302 292 309 322 306 328 15 7 339 287 260 254 262 7 26 2 33 42 31 356 352 344 6 342 315 302 277 264 270 245 224 220 227 230 243 249 259 256
357 354 339 11 47 36 346 351 341 341 328 11 313 238 146 229 280 291 298 332 5 353 318 294 300 2 22 25 23 53 20 33 31 47 5 318 284 301 310 302 296 283 276 266 270 287 301 330 333 344 327 300 287 281
324 347 24 24 78 317 346 330 286 269 307 8 28 32 65 320 298 300 10 352 327 359 27 32 41 24 24 19 16 12 14 358 10 336 272 268 279 282 279 274 262 253 249 252 262 261 269 270 251 265 271 272 267 261
355 60 63 37 346 285 151 63 48 76 356 41 9 340 334 43 61 23 2 1 29 38 21 22 28 7 342 321 307 281 278 298 310 317 312 295 284 273 273 268 266 257 244 244 243 251 256 259 267 258 265 270 269 264
350 9 11 15 15 27 10 341 46 84 48 54 37 19 45 42 77 317 287 108 139 265 315 311 294 290 304 305 286 288 293 281 292 299 307 306 307 309 313 287 288 275 268 274 269 260 265 263 267 267 263 261 268 272